Lid_Strength_Index
3 5 7 9 13 14 17 15 13 10 10 8 6 7 10 10 10 11 9 1 0 0 -0 -0 -1 -1 -1 -1 -1 -1 -1 -1 -1 -1 -1 -1 -1 -1 -1 -1 -1 -1 -1 -1 -1 -1 -1 -1 -1
4 6 10 12 15 18 17 14 12 11 10 11 9 9 9 9 8 10 10 1 0 0 -0 -0 -1 -1 -1 -1 -1 -1 -1 -1 -1 -1 -1 -1 -1 -1 -1 -1 -1 -1 -1 -1 -1 -1 -1 -1 -1
7 7 12 15 16 17 16 14 13 11 10 9 9 8 8 9 7 8 8 1 0 0 -0 -0 -1 -1 -1 -1 -1 -1 -1 -1 -1 -1 -1 -1 -1 -1 -1 -1 -1 -1 -1 -1 -1 -1 -1 -2 -2
7 10 13 15 17 15 15 13 13 11 10 9 9 10 9 7 7 7 7 0 1 0 -0 -0 -1 -1 -1 -1 -1 -1 -1 -1 -1 -1 -1 -1 -1 -1 -1 -1 -1 -1 -1 -1 -1 -1 -2 -2 -1
9 12 15 16 17 15 14 13 13 12 12 11 11 11 10 8 7 7 8 1 1 1 -0 -0 -1 -1 -1 -1 -1 -1 -1 -1 -1 -1 -1 -1 -1 -1 -1 -1 -1 -1 -1 -1 -1 -1 -2 -2 -2
12 13 16 17 16 12 12 12 12 12 12 11 11 11 11 8 12 8 2 2 1 1 -0 -0 -1 -1 -1 -1 -1 -1 -1 -1 -1 -1 -1 -1 -1 -1 -1 -1 -1 -1 -1 -1 -1 -2 -2 -2 -2
13 14 16 16 13 13 12 12 12 12 11 11 10 12 11 9 14 5 1 1 0 1 1 -0 -0 -0 -1 -1 -1 -1 -1 -1 -1 -1 -1 -1 -1 -1 -1 -1 -1 -1 -1 -1 -1 -2 -2 -2 -2
12 14 15 16 13 14 12 12 12 12 11 9 9 11 13 9 10 7 8 2 1 1 0 0 -0 0 0 -0 -1 -1 -1 -1 -1 -1 -1 -1 -1 -1 -1 -1 -1 -1 -1 -1 -1 -1 -2 -2 -2
11 15 16 15 14 14 14 13 11 10 10 9 9 9 8 8 8 7 6 10 10 7 3 0 0 0 0 0 -0 -1 -1 -1 -1 -1 -1 -0 0 0 -0 -1 -1 -1 -1 -1 -1 -1 -1 -1 -2
12 15 14 12 12 13 13 12 11 10 10 10 9 8 8 8 9 9 8 8 7 6 7 9 6 4 3 -0 0 0 -0 0 0 0 0 0 0 0 -0 -0 -1 -1 -1 -1 -1 -1 -1 -1 0
13 14 12 12 12 11 11 12 11 11 13 10 10 9 9 9 10 9 9 9 8 7 5 4 4 4 4 3 -0 -0 0 0 -0 -0 0 0 -0 -0 -0 0 0 0 -1 0 -0 0 0 0 0
11 11 11 11 10 11 11 10 11 11 11 9 9 9 9 9 9 9 8 7 6 5 5 4 3 3 3 2 1 0 0 -0 0 -0 0 0 0 0 0 -0 -0 -0 -0 0 0 -0 0 0 0
13 12 11 11 12 12 10 11 11 11 10 9 9 9 9 8 7 7 7 6 5 5 5 4 4 3 3 3 2 2 1 0 -0 -0 -0 -0 -0 0 1 1 0 0 -0 0 0 1 1 1 1
12 12 12 12 11 12 11 12 11 10 9 9 9 10 8 7 7 7 6 6 5 5 5 4 4 4 4 4 3 3 2 1 0 -0 -0 1 -0 -0 0 2 1 1 -0 -0 0 0 1 1 1
12 14 12 12 12 12 11 13 12 10 10 10 10 10 8 7 6 7 6 6 5 5 4 4 4 5 5 4 3 3 2 1 1 0 -0 -1 0 0 -0 2 1 0 0 -0 0 -0 0 1 1
13 14 16 13 12 11 11 15 11 10 10 10 10 9 7 7 6 6 6 6 6 5 5 4 3 4 4 4 4 3 2 2 1 1 0 -0 -0 0 0 0 3 2 0 0 0 1 1 1 1
15 17 17 14 12 12 13 15 11 11 11 11 11 9 7 7 7 7 6 6 6 6 6 6 4 4 4 3 3 2 2 2 1 1 1 0 -0 -0 0 1 1 1 2 0 0 1 1 2 2
17 17 16 15 13 13 14 14 12 11 11 10 11 9 8 8 7 7 6 6 6 6 6 6 5 6 6 5 3 2 3 3 2 2 1 0 0 -0 0 0 0 -0 0 1 1 1 1 1 2
14 15 15 14 12 13 14 14 13 12 12 12 11 9 8 8 8 7 6 6 6 6 6 6 6 6 6 5 4 5 5 3 3 3 1 0 0 -0 0 1 0 0 1 1 1 1 2 2 2
13 15 15 13 12 13 14 13 12 11 11 11 10 10 8 9 8 7 7 7 6 6 6 6 6 7 6 5 5 4 4 3 3 2 2 1 1 0 0 1 2 2 1 1 2 1 2 2 1
14 15 15 14 13 13 14 15 13 12 11 10 10 9 8 8 8 8 7 7 7 7 7 6 7 7 6 6 6 6 6 6 6 6 5 3 1 0 1 1 2 2 2 2 1 1 2 3 2
15 12 13 13 15 17 14 19 15 13 12 11 11 11 8 8 8 8 8 8 8 7 7 7 7 8 7 7 8 8 8 8 7 6 5 4 2 1 0 1 2 2 2 2 1 1 1 2 3
13 12 13 13 16 17 16 18 17 14 14 12 11 11 9 8 8 8 8 8 8 8 8 8 8 8 8 8 9 9 9 8 7 6 6 5 3 2 1 1 2 2 2 2 1 1 1 1 2
10 13 13 14 17 20 17 17 18 16 14 11 11 10 9 9 9 8 8 8 9 9 9 9 9 9 9 9 8 9 9 9 8 8 7 6 5 3 2 2 2 2 2 2 1 1 1 1 1
13 15 20 20 19 20 15 17 17 13 10 9 10 10 9 9 9 8 9 9 9 9 9 9 9 9 9 9 9 9 9 9 9 8 7 6 5 5 4 3 2 2 2 2 2 1 1 1 2
14 14 18 21 21 19 14 17 14 10 10 10 9 9 9 9 9 8 8 9 10 9 9 9 10 10 9 9 9 9 9 8 8 7 7 6 6 6 5 4 3 2 2 1 1 1 1 1 1
14 15 13 16 16 19 16 14 11 10 10 10 10 9 9 9 9 9 9 10 10 9 10 10 10 10 10 10 9 9 9 9 8 7 6 6 6 6 5 5 4 4 3 1 1 1 1 1 1
12 11 15 16 20 21 17 16 16 12 11 10 10 10 9 9 9 9 10 10 10 10 10 10 10 10 10 9 9 8 8 8 7 7 7 6 6 6 6 5 5 4 3 2 2 1 1 1 1
13 14 14 14 16 19 21 17 12 11 10 10 10 9 9 9 9 9 10 10 10 10 10 10 10 10 10 9 9 9 8 8 7 7 6 6 6 6 6 6 6 5 4 3 2 1 1 2 2
10 12 12 17 17 17 17 15 10 10 9 9 9 9 10 9 9 10 10 10 10 10 10 10 10 10 10 10 9 9 8 8 8 7 7 7 7 6 6 6 6 5 4 3 2 2 2 2 2